Time,TemperatureF,DewpointF,PressureIn,WindDirection,WindDirectionDegrees,WindSpeedMPH,WindSpeedGustMPH,Humidity,HourlyPrecipIn,Conditions,Clouds,dailyrainin,SoftwareType,DateUTC
2013-07-19 00:03:00,76.8,67.9,29.74,SSW,211,6.0,7.0,74,0.00,,,0.00,Wunderground v.1.15,2013-07-19 05:03:00,
2013-07-19 00:08:00,77.0,68.1,29.73,SW,223,5.0,10.0,74,0.00,,,0.00,Wunderground v.1.15,2013-07-19 05:08:00,
2013-07-19 00:13:00,77.5,68.2,29.73,SW,214,7.0,7.0,73,0.00,,,0.00,Wunderground v.1.15,2013-07-19 05:13:00,
2013-07-19 00:19:00,78.0,68.2,29.73,SW,218,7.0,9.0,72,0.00,,,0.00,Wunderground v.1.15,2013-07-19 05:19:00,
2013-07-19 00:25:00,78.2,68.0,29.73,SW,223,7.0,10.0,71,0.00,,,0.00,Wunderground v.1.15,2013-07-19 05:25:00,
2013-07-19 00:31:00,78.4,68.2,29.73,SW,225,8.0,11.0,71,0.00,,,0.00,Wunderground v.1.15,2013-07-19 05:31:00,
2013-07-19 00:36:00,78.4,68.2,29.73,SSW,213,11.0,11.0,71,0.00,,,0.00,Wunderground v.1.15,2013-07-19 05:36:00,
2013-07-19 00:42:00,78.2,68.0,29.73,SW,215,6.0,13.0,71,0.00,,,0.00,Wunderground v.1.15,2013-07-19 05:42:00,
2013-07-19 00:47:00,78.1,67.9,29.73,SSW,209,7.0,13.0,71,0.00,,,0.00,Wunderground v.1.15,2013-07-19 05:47:00,
2013-07-19 00:53:00,77.8,68.0,29.73,SW,225,11.0,11.0,72,0.00,,,0.00,Wunderground v.1.15,2013-07-19 05:53:00,
2013-07-19 00:59:00,77.8,68.0,29.73,SW,224,6.0,11.0,72,0.00,,,0.00,Wunderground v.1.15,2013-07-19 05:59:00,
2013-07-19 01:04:00,77.7,68.0,29.73,SW,217,10.0,10.0,72,0.00,,,0.00,Wunderground v.1.15,2013-07-19 06:04:00,
2013-07-19 01:10:00,77.9,67.7,29.73,SW,231,9.0,9.0,71,0.00,,,0.00,Wunderground v.1.15,2013-07-19 06:10:00,
2013-07-19 01:16:00,77.8,67.6,29.73,SSW,210,10.0,12.0,71,0.00,,,0.00,Wunderground v.1.15,2013-07-19 06:16:00,
2013-07-19 01:21:00,77.9,67.3,29.73,SW,222,7.0,12.0,70,0.00,,,0.00,Wunderground v.1.15,2013-07-19 06:21:00,
2013-07-19 01:27:00,78.0,67.4,29.73,SW,217,7.0,12.0,70,0.00,,,0.00,Wunderground v.1.15,2013-07-19 06:27:00,
2013-07-19 01:33:00,78.1,67.5,29.72,SW,221,9.0,11.0,70,0.00,,,0.00,Wunderground v.1.15,2013-07-19 06:33:00,
2013-07-19 01:38:00,78.2,67.2,29.72,SW,220,10.0,11.0,69,0.00,,,0.00,Wunderground v.1.15,2013-07-19 06:38:00,
2013-07-19 01:44:00,78.3,67.3,29.72,SSW,209,6.0,10.0,69,0.00,,,0.00,Wunderground v.1.15,2013-07-19 06:44:00,
2013-07-19 01:49:00,78.6,67.2,29.72,SW,218,11.0,11.0,68,0.00,,,0.00,Wunderground v.1.15,2013-07-19 06:49:00,
2013-07-19 01:55:00,78.7,67.2,29.72,SW,223,9.0,14.0,68,0.00,,,0.00,Wunderground v.1.15,2013-07-19 06:55:00,
2013-07-19 02:00:00,78.7,67.2,29.72,SW,218,12.0,12.0,68,0.00,,,0.00,Wunderground v.1.15,2013-07-19 07:00:00,
2013-07-19 02:06:00,78.7,66.8,29.72,WSW,237,10.0,12.0,67,0.00,,,0.00,Wunderground v.1.15,2013-07-19 07:06:00,
2013-07-19 02:11:00,78.9,67.0,29.72,SW,218,7.0,9.0,67,0.00,,,0.00,Wunderground v.1.15,2013-07-19 07:11:00,
2013-07-19 02:16:00,78.9,67.0,29.72,SW,226,11.0,13.0,67,0.00,,,0.00,Wunderground v.1.15,2013-07-19 07:16:00,
2013-07-19 02:21:00,78.9,67.0,29.72,SW,234,10.0,12.0,67,0.00,,,0.00,Wunderground v.1.15,2013-07-19 07:21:00,
2013-07-19 02:26:00,79.0,66.7,29.71,SW,227,9.0,15.0,66,0.00,,,0.00,Wunderground v.1.15,2013-07-19 07:26:00,
2013-07-19 02:31:00,79.2,66.9,29.71,SSW,210,10.0,14.0,66,0.00,,,0.00,Wunderground v.1.15,2013-07-19 07:31:00,
2013-07-19 02:37:00,78.9,67.0,29.71,SW,233,7.0,16.0,67,0.00,,,0.00,Wunderground v.1.15,2013-07-19 07:37:00,
2013-07-19 02:41:00,78.8,66.5,29.71,SW,226,4.0,13.0,66,0.00,,,0.00,Wunderground v.1.15,2013-07-19 07:41:00,
2013-07-19 02:47:00,78.8,66.5,29.70,WSW,238,8.0,15.0,66,0.00,,,0.00,Wunderground v.1.15,2013-07-19 07:47:00,
2013-07-19 02:52:00,78.7,66.8,29.70,SW,215,9.0,13.0,67,0.00,,,0.00,Wunderground v.1.15,2013-07-19 07:52:00,
2013-07-19 02:57:00,78.5,66.6,29.70,SW,229,13.0,15.0,67,0.00,,,0.00,Wunderground v.1.15,2013-07-19 07:57:00,
2013-07-19 03:02:00,78.5,66.6,29.70,SW,227,8.0,11.0,67,0.00,,,0.00,Wunderground v.1.15,2013-07-19 08:02:00,
2013-07-19 03:07:00,78.5,66.6,29.70,SW,234,8.0,14.0,67,0.00,,,0.00,Wunderground v.1.15,2013-07-19 08:07:00,
2013-07-19 03:12:00,78.4,66.5,29.70,SW,215,9.0,15.0,67,0.00,,,0.00,Wunderground v.1.15,2013-07-19 08:12:00,
2013-07-19 03:17:00,78.2,66.3,29.69,SW,221,11.0,16.0,67,0.00,,,0.00,Wunderground v.1.15,2013-07-19 08:17:00,
2013-07-19 03:22:00,78.0,66.2,29.69,WSW,238,9.0,14.0,67,0.00,,,0.00,Wunderground v.1.15,2013-07-19 08:22:00,
2013-07-19 03:27:00,77.8,66.4,29.69,SW,224,5.0,15.0,68,0.00,,,0.00,Wunderground v.1.15,2013-07-19 08:27:00,
2013-07-19 03:32:00,77.5,66.1,29.69,SW,230,11.0,14.0,68,0.00,,,0.00,Wunderground v.1.15,2013-07-19 08:32:00,
2013-07-19 03:37:00,77.6,66.2,29.69,SW,229,7.0,15.0,68,0.00,,,0.00,Wunderground v.1.15,2013-07-19 08:37:00,
2013-07-19 03:42:00,77.4,66.0,29.70,WSW,252,3.0,11.0,68,0.00,,,0.00,Wunderground v.1.15,2013-07-19 08:42:00,
2013-07-19 03:47:00,77.1,66.1,29.70,WSW,242,10.0,12.0,69,0.00,,,0.00,Wunderground v.1.15,2013-07-19 08:47:00,
2013-07-19 03:52:00,76.9,66.0,29.70,WSW,256,11.0,14.0,69,0.00,,,0.00,Wunderground v.1.15,2013-07-19 08:52:00,
2013-07-19 03:57:00,77.2,66.2,29.70,West,264,8.0,15.0,69,0.00,,,0.00,Wunderground v.1.15,2013-07-19 08:57:00,
2013-07-19 04:02:00,77.1,66.6,29.69,WSW,241,8.0,10.0,70,0.00,,,0.00,Wunderground v.1.15,2013-07-19 09:02:00,
2013-07-19 04:07:00,75.7,66.8,29.69,WSW,248,7.0,17.0,74,0.00,,,0.01,Wunderground v.1.15,2013-07-19 09:07:00,
2013-07-19 04:12:00,74.8,66.7,29.69,WSW,243,24.0,24.0,76,0.08,,,0.01,Wunderground v.1.15,2013-07-19 09:12:00,
2013-07-19 04:17:00,75.7,66.4,29.69,SW,227,12.0,24.0,73,0.08,,,0.02,Wunderground v.1.15,2013-07-19 09:17:00,
2013-07-19 04:22:00,75.6,66.7,29.69,WSW,239,15.0,16.0,74,0.06,,,0.02,Wunderground v.1.15,2013-07-19 09:22:00,
2013-07-19 04:27:00,75.2,66.7,29.70,West,265,11.0,16.0,75,0.04,,,0.02,Wunderground v.1.15,2013-07-19 09:27:00,
2013-07-19 04:33:00,74.6,66.5,29.70,WSW,242,9.0,11.0,76,0.00,,,0.02,Wunderground v.1.15,2013-07-19 09:33:00,
2013-07-19 04:38:00,74.0,66.7,29.70,WSW,254,7.0,11.0,78,0.00,,,0.02,Wunderground v.1.15,2013-07-19 09:38:00,
2013-07-19 04:43:00,73.5,66.6,29.70,WSW,255,7.0,8.0,79,0.00,,,0.02,Wunderground v.1.15,2013-07-19 09:43:00,
2013-07-19 04:48:00,73.1,66.6,29.70,West,260,4.0,8.0,80,0.00,,,0.02,Wunderground v.1.15,2013-07-19 09:48:00,
2013-07-19 04:53:00,73.0,66.5,29.70,West,262,4.0,7.0,80,0.00,,,0.02,Wunderground v.1.15,2013-07-19 09:53:00,
2013-07-19 04:58:00,72.9,66.7,29.71,West,265,5.0,8.0,81,0.00,,,0.02,Wunderground v.1.15,2013-07-19 09:58:00,
2013-07-19 05:03:00,72.7,66.5,29.71,West,263,6.0,11.0,81,0.00,,,0.02,Wunderground v.1.15,2013-07-19 10:03:00,
2013-07-19 05:08:00,72.7,66.5,29.71,West,260,5.0,11.0,81,0.00,,,0.02,Wunderground v.1.15,2013-07-19 10:08:00,
2013-07-19 05:13:00,72.5,66.3,29.71,West,260,1.0,5.0,81,0.00,,,0.02,Wunderground v.1.15,2013-07-19 10:13:00,
2013-07-19 05:18:00,72.1,66.3,29.71,West,260,3.0,6.0,82,0.00,,,0.02,Wunderground v.1.15,2013-07-19 10:18:00,
2013-07-19 05:23:00,72.1,66.3,29.72,West,265,4.0,6.0,82,0.00,,,0.02,Wunderground v.1.15,2013-07-19 10:23:00,
2013-07-19 05:28:00,72.3,66.5,29.72,West,272,6.0,9.0,82,0.00,,,0.02,Wunderground v.1.15,2013-07-19 10:28:00,
2013-07-19 05:33:00,72.3,66.5,29.72,West,271,3.0,7.0,82,0.00,,,0.02,Wunderground v.1.15,2013-07-19 10:33:00,
2013-07-19 05:38:00,72.0,66.2,29.73,West,272,4.0,7.0,82,0.00,,,0.02,Wunderground v.1.15,2013-07-19 10:38:00,
2013-07-19 05:43:00,71.9,66.1,29.73,West,272,4.0,6.0,82,0.00,,,0.02,Wunderground v.1.15,2013-07-19 10:43:00,
2013-07-19 05:48:00,71.8,66.4,29.73,West,272,4.0,6.0,83,0.00,,,0.02,Wunderground v.1.15,2013-07-19 10:48:00,
2013-07-19 05:53:00,71.7,66.3,29.74,West,273,0.0,5.0,83,0.00,,,0.02,Wunderground v.1.15,2013-07-19 10:53:00,
2013-07-19 05:58:00,71.6,66.2,29.74,West,272,0.0,5.0,83,0.00,,,0.02,Wunderground v.1.15,2013-07-19 10:58:00,
2013-07-19 06:03:00,71.4,66.0,29.73,West,272,0.0,1.0,83,0.00,,,0.02,Wunderground v.1.15,2013-07-19 11:03:00,
2013-07-19 06:08:00,71.0,65.6,29.74,West,273,0.0,1.0,83,0.00,,,0.02,Wunderground v.1.15,2013-07-19 11:08:00,
2013-07-19 06:13:00,70.7,65.6,29.73,West,273,0.0,0.0,84,0.00,,,0.02,Wunderground v.1.15,2013-07-19 11:13:00,
2013-07-19 06:18:00,70.3,65.2,29.74,West,273,0.0,0.0,84,0.00,,,0.02,Wunderground v.1.15,2013-07-19 11:18:00,
2013-07-19 06:23:00,69.9,65.2,29.74,West,272,0.0,0.0,85,0.00,,,0.02,Wunderground v.1.15,2013-07-19 11:23:00,
2013-07-19 06:28:00,69.6,65.2,29.73,West,273,0.0,0.0,86,0.00,,,0.02,Wunderground v.1.15,2013-07-19 11:28:00,
2013-07-19 06:33:00,69.4,65.0,29.73,West,273,0.0,0.0,86,0.00,,,0.02,Wunderground v.1.15,2013-07-19 11:33:00,
2013-07-19 06:38:00,69.4,65.4,29.73,West,272,0.0,0.0,87,0.00,,,0.02,Wunderground v.1.15,2013-07-19 11:38:00,
2013-07-19 06:43:00,69.5,65.5,29.74,WNW,291,0.0,0.0,87,0.00,,,0.02,Wunderground v.1.15,2013-07-19 11:43:00,
2013-07-19 06:48:00,69.8,65.8,29.74,WNW,291,0.0,0.0,87,0.00,,,0.02,Wunderground v.1.15,2013-07-19 11:48:00,
2013-07-19 06:54:00,70.3,66.2,29.74,WNW,291,1.0,2.0,87,0.00,,,0.02,Wunderground v.1.15,2013-07-19 11:54:00,
2013-07-19 06:58:00,70.9,66.5,29.74,WNW,291,1.0,4.0,86,0.00,,,0.02,Wunderground v.1.15,2013-07-19 11:58:00,
2013-07-19 07:04:00,71.3,66.6,29.73,WNW,291,2.0,3.0,85,0.00,,,0.02,Wunderground v.1.15,2013-07-19 12:04:00,
2013-07-19 07:09:00,71.6,66.8,29.73,WNW,291,1.0,4.0,85,0.00,,,0.02,Wunderground v.1.15,2013-07-19 12:09:00,
2013-07-19 07:14:00,72.0,67.2,29.73,WNW,291,1.0,4.0,85,0.00,,,0.02,Wunderground v.1.15,2013-07-19 12:14:00,
2013-07-19 07:19:00,72.4,67.6,29.73,WNW,291,0.0,4.0,85,0.00,,,0.02,Wunderground v.1.15,2013-07-19 12:19:00,
2013-07-19 07:24:00,72.9,67.8,29.74,WNW,291,0.0,1.0,84,0.00,,,0.02,Wunderground v.1.15,2013-07-19 12:24:00,
2013-07-19 07:29:00,73.4,68.3,29.73,WNW,291,0.0,2.0,84,0.00,,,0.02,Wunderground v.1.15,2013-07-19 12:29:00,
2013-07-19 07:34:00,74.0,68.9,29.74,WNW,291,0.0,0.0,84,0.00,,,0.02,Wunderground v.1.15,2013-07-19 12:34:00,
2013-07-19 07:39:00,74.4,68.5,29.74,WNW,291,0.0,0.0,82,0.00,,,0.02,Wunderground v.1.15,2013-07-19 12:39:00,
2013-07-19 07:44:00,74.8,69.3,29.74,WNW,291,0.0,0.0,83,0.00,,,0.02,Wunderground v.1.15,2013-07-19 12:44:00,
2013-07-19 07:49:00,75.0,69.1,29.74,WNW,291,0.0,0.0,82,0.00,,,0.02,Wunderground v.1.15,2013-07-19 12:49:00,
2013-07-19 07:54:00,75.3,69.1,29.74,WNW,291,0.0,0.0,81,0.00,,,0.02,Wunderground v.1.15,2013-07-19 12:54:00,
2013-07-19 07:59:00,75.6,69.4,29.74,WNW,291,0.0,0.0,81,0.00,,,0.02,Wunderground v.1.15,2013-07-19 12:59:00,
2013-07-19 08:04:00,76.1,69.5,29.75,WNW,291,1.0,4.0,80,0.00,,,0.02,Wunderground v.1.15,2013-07-19 13:04:00,
2013-07-19 08:09:00,76.6,70.3,29.75,WNW,291,3.0,4.0,81,0.00,,,0.02,Wunderground v.1.15,2013-07-19 13:09:00,
2013-07-19 08:14:00,76.9,69.9,29.75,WNW,291,2.0,4.0,79,0.00,,,0.02,Wunderground v.1.15,2013-07-19 13:14:00,
2013-07-19 08:19:00,77.4,69.6,29.75,WNW,291,2.0,6.0,77,0.00,,,0.02,Wunderground v.1.15,2013-07-19 13:19:00,
2013-07-19 08:24:00,77.9,70.5,29.75,WNW,291,0.0,5.0,78,0.00,,,0.02,Wunderground v.1.15,2013-07-19 13:24:00,
2013-07-19 08:26:00,78.1,70.3,29.75,WNW,291,0.0,5.0,77,0.00,,,0.02,Wunderground v.1.15,2013-07-19 13:26:00,
2013-07-19 08:31:00,78.6,70.4,29.75,WNW,291,2.0,4.0,76,0.00,,,0.02,Wunderground v.1.15,2013-07-19 13:31:00,
2013-07-19 08:36:00,78.9,70.3,29.75,WNW,291,0.0,6.0,75,0.00,,,0.02,Wunderground v.1.15,2013-07-19 13:36:00,
2013-07-19 08:41:00,78.9,70.3,29.76,WNW,298,0.0,4.0,75,0.00,,,0.02,Wunderground v.1.15,2013-07-19 13:41:00,
2013-07-19 08:46:00,79.1,69.3,29.76,WNW,302,1.0,6.0,72,0.00,,,0.02,Wunderground v.1.15,2013-07-19 13:46:00,
2013-07-19 08:51:00,79.5,70.1,29.76,WNW,302,6.0,7.0,73,0.00,,,0.02,Wunderground v.1.15,2013-07-19 13:51:00,
2013-07-19 08:56:00,79.5,69.7,29.76,NW,312,2.0,7.0,72,0.00,,,0.02,Wunderground v.1.15,2013-07-19 13:56:00,
2013-07-19 09:01:00,79.8,69.6,29.76,NW,312,0.0,3.0,71,0.00,,,0.02,Wunderground v.1.15,2013-07-19 14:01:00,
2013-07-19 09:06:00,80.3,69.2,29.76,NW,311,3.0,5.0,69,0.00,,,0.02,Wunderground v.1.15,2013-07-19 14:06:00,
2013-07-19 09:11:00,80.2,69.1,29.76,NW,311,2.0,7.0,69,0.00,,,0.02,Wunderground v.1.15,2013-07-19 14:11:00,
2013-07-19 09:16:00,80.1,68.6,29.76,NW,311,0.0,7.0,68,0.00,,,0.02,Wunderground v.1.15,2013-07-19 14:16:00,
2013-07-19 09:21:00,80.0,68.5,29.77,NW,312,6.0,7.0,68,0.00,,,0.02,Wunderground v.1.15,2013-07-19 14:21:00,
2013-07-19 09:26:00,80.3,68.8,29.77,NW,312,2.0,8.0,68,0.00,,,0.02,Wunderground v.1.15,2013-07-19 14:26:00,
2013-07-19 09:31:00,80.3,67.9,29.77,NW,314,9.0,9.0,66,0.00,,,0.02,Wunderground v.1.15,2013-07-19 14:31:00,
2013-07-19 09:36:00,80.3,67.9,29.77,NW,315,0.0,9.0,66,0.00,,,0.02,Wunderground v.1.15,2013-07-19 14:36:00,
2013-07-19 09:41:00,80.5,68.1,29.77,NW,312,0.0,4.0,66,0.00,,,0.02,Wunderground v.1.15,2013-07-19 14:41:00,
2013-07-19 09:46:00,80.9,68.0,29.77,NW,311,2.0,7.0,65,0.00,,,0.02,Wunderground v.1.15,2013-07-19 14:46:00,
2013-07-19 09:51:00,80.9,67.6,29.77,NW,314,1.0,7.0,64,0.00,,,0.02,Wunderground v.1.15,2013-07-19 14:51:00,
2013-07-19 09:56:00,81.0,67.7,29.77,NW,314,4.0,8.0,64,0.00,,,0.02,Wunderground v.1.15,2013-07-19 14:56:00,
2013-07-19 10:01:00,81.0,67.2,29.77,NW,315,7.0,9.0,63,0.00,,,0.02,Wunderground v.1.15,2013-07-19 15:01:00,
2013-07-19 10:06:00,81.3,66.6,29.77,NW,315,6.0,9.0,61,0.00,,,0.02,Wunderground v.1.15,2013-07-19 15:06:00,
2013-07-19 10:11:00,81.3,65.6,29.78,NW,317,0.0,6.0,59,0.00,,,0.02,Wunderground v.1.15,2013-07-19 15:11:00,
2013-07-19 10:16:00,81.8,66.6,29.78,NW,317,3.0,6.0,60,0.00,,,0.02,Wunderground v.1.15,2013-07-19 15:16:00,
2013-07-19 10:21:00,81.9,65.7,29.78,NW,317,5.0,7.0,58,0.00,,,0.02,Wunderground v.1.15,2013-07-19 15:21:00,
2013-07-19 10:26:00,81.4,65.7,29.78,NW,315,6.0,7.0,59,0.00,,,0.02,Wunderground v.1.15,2013-07-19 15:26:00,
2013-07-19 10:31:00,81.4,66.7,29.78,NW,314,6.0,6.0,61,0.00,,,0.02,Wunderground v.1.15,2013-07-19 15:31:00,
2013-07-19 10:36:00,81.8,68.0,29.78,NW,315,1.0,7.0,63,0.00,,,0.02,Wunderground v.1.15,2013-07-19 15:36:00,
2013-07-19 10:41:00,82.2,67.4,29.78,NW,325,3.0,8.0,61,0.00,,,0.02,Wunderground v.1.15,2013-07-19 15:41:00,
2013-07-19 10:46:00,81.9,66.2,29.78,NW,315,7.0,10.0,59,0.00,,,0.02,Wunderground v.1.15,2013-07-19 15:46:00,
2013-07-19 10:51:00,81.4,65.7,29.78,NW,305,6.0,11.0,59,0.00,,,0.02,Wunderground v.1.15,2013-07-19 15:51:00,
2013-07-19 10:56:00,81.3,66.6,29.79,NW,317,2.0,11.0,61,0.00,,,0.02,Wunderground v.1.15,2013-07-19 15:56:00,
2013-07-19 11:02:00,81.3,67.0,29.79,NW,318,0.0,8.0,62,0.00,,,0.02,Wunderground v.1.15,2013-07-19 16:02:00,
2013-07-19 11:07:00,81.2,65.5,29.79,NW,312,0.0,11.0,59,0.00,,,0.02,Wunderground v.1.15,2013-07-19 16:07:00,
2013-07-19 11:12:00,81.4,66.7,29.80,NW,312,0.0,5.0,61,0.00,,,0.02,Wunderground v.1.15,2013-07-19 16:12:00,
2013-07-19 11:17:00,81.1,66.4,29.80,NW,325,3.0,10.0,61,0.00,,,0.02,Wunderground v.1.15,2013-07-19 16:17:00,
2013-07-19 11:22:00,80.9,65.7,29.79,NW,322,7.0,9.0,60,0.00,,,0.02,Wunderground v.1.15,2013-07-19 16:22:00,
2013-07-19 11:27:00,81.1,65.4,29.79,NW,322,8.0,10.0,59,0.00,,,0.02,Wunderground v.1.15,2013-07-19 16:27:00,
2013-07-19 11:32:00,80.8,65.6,29.79,NW,314,8.0,13.0,60,0.00,,,0.02,Wunderground v.1.15,2013-07-19 16:32:00,
2013-07-19 11:37:00,81.2,65.5,29.79,NW,313,6.0,13.0,59,0.00,,,0.02,Wunderground v.1.15,2013-07-19 16:37:00,
2013-07-19 11:42:00,81.6,64.9,29.79,NW,313,7.0,7.0,57,0.00,,,0.02,Wunderground v.1.15,2013-07-19 16:42:00,
2013-07-19 11:47:00,81.3,63.6,29.79,NW,310,9.0,14.0,55,0.00,,,0.02,Wunderground v.1.15,2013-07-19 16:47:00,
2013-07-19 11:52:00,81.5,66.8,29.80,NW,319,7.0,10.0,61,0.00,,,0.02,Wunderground v.1.15,2013-07-19 16:52:00,
2013-07-19 11:58:00,81.3,65.1,29.80,NW,310,6.0,10.0,58,0.00,,,0.02,Wunderground v.1.15,2013-07-19 16:58:00,
2013-07-19 12:03:00,81.4,67.1,29.79,NW,310,2.0,8.0,62,0.00,,,0.02,Wunderground v.1.15,2013-07-19 17:03:00,
2013-07-19 12:08:00,81.5,66.8,29.79,NW,319,2.0,11.0,61,0.00,,,0.02,Wunderground v.1.15,2013-07-19 17:08:00,
2013-07-19 12:13:00,81.6,64.4,29.79,NW,311,7.0,15.0,56,0.00,,,0.02,Wunderground v.1.15,2013-07-19 17:13:00,
2013-07-19 12:18:00,81.6,61.2,29.80,NW,322,6.0,15.0,50,0.00,,,0.02,Wunderground v.1.15,2013-07-19 17:18:00,
2013-07-19 12:23:00,81.6,63.9,29.80,NW,322,2.0,6.0,55,0.00,,,0.02,Wunderground v.1.15,2013-07-19 17:23:00,
2013-07-19 12:28:00,81.8,64.1,29.80,NW,319,1.0,11.0,55,0.00,,,0.02,Wunderground v.1.15,2013-07-19 17:28:00,
2013-07-19 12:33:00,81.6,64.9,29.80,NW,317,0.0,13.0,57,0.00,,,0.02,Wunderground v.1.15,2013-07-19 17:33:00,
2013-07-19 12:38:00,81.7,65.5,29.80,NW,318,1.0,13.0,58,0.00,,,0.02,Wunderground v.1.15,2013-07-19 17:38:00,
2013-07-19 12:43:00,81.6,64.9,29.80,NW,322,8.0,12.0,57,0.00,,,0.02,Wunderground v.1.15,2013-07-19 17:43:00,
2013-07-19 12:48:00,81.2,65.0,29.80,NW,311,9.0,14.0,58,0.00,,,0.02,Wunderground v.1.15,2013-07-19 17:48:00,
2013-07-19 12:53:00,81.3,64.6,29.80,NW,312,7.0,9.0,57,0.00,,,0.02,Wunderground v.1.15,2013-07-19 17:53:00,
2013-07-19 12:58:00,81.4,64.2,29.80,NW,315,9.0,11.0,56,0.00,,,0.02,Wunderground v.1.15,2013-07-19 17:58:00,
2013-07-19 13:03:00,81.3,63.1,29.80,NW,314,8.0,14.0,54,0.00,,,0.02,Wunderground v.1.15,2013-07-19 18:03:00,
2013-07-19 13:08:00,81.0,63.8,29.80,WNW,300,14.0,15.0,56,0.00,,,0.02,Wunderground v.1.15,2013-07-19 18:08:00,
2013-07-19 13:13:00,81.2,65.0,29.80,NW,315,2.0,13.0,58,0.00,,,0.02,Wunderground v.1.15,2013-07-19 18:13:00,
2013-07-19 13:18:00,81.9,65.2,29.80,NNW,344,2.0,13.0,57,0.00,,,0.02,Wunderground v.1.15,2013-07-19 18:18:00,
2013-07-19 13:23:00,82.0,64.2,29.80,NW,319,2.0,11.0,55,0.00,,,0.02,Wunderground v.1.15,2013-07-19 18:23:00,
2013-07-19 13:28:00,81.8,65.1,29.80,WNW,303,9.0,12.0,57,0.00,,,0.02,Wunderground v.1.15,2013-07-19 18:28:00,
2013-07-19 13:33:00,82.1,66.4,29.80,NW,321,1.0,8.0,59,0.00,,,0.02,Wunderground v.1.15,2013-07-19 18:33:00,
2013-07-19 13:38:00,82.5,65.7,29.80,NNW,327,0.0,13.0,57,0.00,,,0.02,Wunderground v.1.15,2013-07-19 18:38:00,
2013-07-19 13:43:00,82.3,66.0,29.80,NW,318,1.0,14.0,58,0.00,,,0.02,Wunderground v.1.15,2013-07-19 18:43:00,
2013-07-19 13:48:00,82.2,63.9,29.80,NW,307,12.0,14.0,54,0.00,,,0.02,Wunderground v.1.15,2013-07-19 18:48:00,
2013-07-19 13:53:00,82.1,64.3,29.80,NW,311,2.0,8.0,55,0.00,,,0.02,Wunderground v.1.15,2013-07-19 18:53:00,
2013-07-19 13:58:00,82.4,65.1,29.80,NNW,327,7.0,9.0,56,0.00,,,0.02,Wunderground v.1.15,2013-07-19 18:58:00,
2013-07-19 14:03:00,81.9,64.1,29.80,NW,308,14.0,16.0,55,0.00,,,0.02,Wunderground v.1.15,2013-07-19 19:03:00,
2013-07-19 14:08:00,81.8,65.6,29.80,NNW,331,0.0,18.0,58,0.00,,,0.02,Wunderground v.1.15,2013-07-19 19:08:00,
2013-07-19 14:13:00,82.3,66.0,29.80,NW,320,8.0,13.0,58,0.00,,,0.02,Wunderground v.1.15,2013-07-19 19:13:00,
2013-07-19 14:18:00,82.1,64.8,29.80,NW,311,8.0,13.0,56,0.00,,,0.02,Wunderground v.1.15,2013-07-19 19:18:00,
2013-07-19 14:23:00,82.6,67.3,29.80,WNW,299,12.0,12.0,60,0.00,,,0.02,Wunderground v.1.15,2013-07-19 19:23:00,
2013-07-19 14:28:00,82.0,63.2,29.80,NW,309,9.0,13.0,53,0.00,,,0.02,Wunderground v.1.15,2013-07-19 19:28:00,
2013-07-19 14:34:00,81.8,63.5,29.80,NNW,330,9.0,14.0,54,0.00,,,0.02,Wunderground v.1.15,2013-07-19 19:34:00,
2013-07-19 14:39:00,82.0,64.2,29.80,NNW,346,5.0,14.0,55,0.00,,,0.02,Wunderground v.1.15,2013-07-19 19:39:00,
2013-07-19 14:44:00,82.0,63.7,29.80,NW,313,1.0,14.0,54,0.00,,,0.02,Wunderground v.1.15,2013-07-19 19:44:00,
2013-07-19 14:49:00,82.2,63.9,29.80,NW,324,16.0,16.0,54,0.00,,,0.02,Wunderground v.1.15,2013-07-19 19:49:00,
2013-07-19 14:54:00,82.0,61.5,29.80,NW,311,9.0,13.0,50,0.00,,,0.02,Wunderground v.1.15,2013-07-19 19:54:00,
2013-07-19 14:59:00,82.2,62.3,29.80,NW,316,0.0,13.0,51,0.00,,,0.02,Wunderground v.1.15,2013-07-19 19:59:00,
2013-07-19 15:04:00,82.6,63.7,29.80,NW,305,9.0,10.0,53,0.00,,,0.02,Wunderground v.1.15,2013-07-19 20:04:00,
2013-07-19 15:09:00,82.5,62.5,29.80,NW,321,5.0,12.0,51,0.00,,,0.02,Wunderground v.1.15,2013-07-19 20:09:00,
2013-07-19 15:14:00,82.2,62.3,29.80,NW,314,4.0,11.0,51,0.00,,,0.02,Wunderground v.1.15,2013-07-19 20:14:00,
2013-07-19 15:19:00,82.5,63.1,29.80,North,349,4.0,11.0,52,0.00,,,0.02,Wunderground v.1.15,2013-07-19 20:19:00,
2013-07-19 15:24:00,82.3,60.6,29.80,NNW,336,2.0,13.0,48,0.00,,,0.02,Wunderground v.1.15,2013-07-19 20:24:00,
2013-07-19 15:29:00,82.2,59.4,29.80,NW,314,9.0,14.0,46,0.00,,,0.02,Wunderground v.1.15,2013-07-19 20:29:00,
2013-07-19 15:34:00,82.1,59.3,29.80,NW,315,8.0,11.0,46,0.00,,,0.02,Wunderground v.1.15,2013-07-19 20:34:00,
2013-07-19 15:39:00,82.7,61.0,29.80,NW,311,1.0,11.0,48,0.00,,,0.02,Wunderground v.1.15,2013-07-19 20:39:00,
2013-07-19 15:44:00,83.3,61.6,29.80,NW,315,8.0,11.0,48,0.00,,,0.02,Wunderground v.1.15,2013-07-19 20:44:00,
2013-07-19 15:49:00,82.9,62.4,29.80,NW,312,7.0,13.0,50,0.00,,,0.02,Wunderground v.1.15,2013-07-19 20:49:00,
2013-07-19 15:54:00,83.0,60.7,29.80,NW,318,1.0,10.0,47,0.00,,,0.02,Wunderground v.1.15,2013-07-19 20:54:00,
2013-07-19 15:59:00,83.3,62.7,29.80,NNW,330,2.0,2.0,50,0.00,,,0.02,Wunderground v.1.15,2013-07-19 20:59:00,
2013-07-19 16:05:00,83.3,62.7,29.80,NW,321,0.0,10.0,50,0.00,,,0.02,Wunderground v.1.15,2013-07-19 21:05:00,
2013-07-19 16:10:00,83.4,61.7,29.79,NW,323,1.0,3.0,48,0.00,,,0.02,Wunderground v.1.15,2013-07-19 21:10:00,
2013-07-19 16:15:00,83.6,61.8,29.79,NW,320,5.0,12.0,48,0.00,,,0.02,Wunderground v.1.15,2013-07-19 21:15:00,
2013-07-19 16:20:00,83.3,61.0,29.80,NW,318,8.0,8.0,47,0.00,,,0.02,Wunderground v.1.15,2013-07-19 21:20:00,
2013-07-19 16:25:00,83.0,63.0,29.79,NW,317,0.0,11.0,51,0.00,,,0.02,Wunderground v.1.15,2013-07-19 21:25:00,
2013-07-19 16:30:00,83.4,61.7,29.80,NW,310,5.0,7.0,48,0.00,,,0.02,Wunderground v.1.15,2013-07-19 21:30:00,
2013-07-19 16:35:00,83.1,61.4,29.80,NW,317,0.0,7.0,48,0.00,,,0.02,Wunderground v.1.15,2013-07-19 21:35:00,
2013-07-19 16:40:00,82.9,61.2,29.80,NW,315,0.0,2.0,48,0.00,,,0.02,Wunderground v.1.15,2013-07-19 21:40:00,
2013-07-19 16:45:00,82.7,61.6,29.80,NNW,335,1.0,10.0,49,0.00,,,0.02,Wunderground v.1.15,2013-07-19 21:45:00,
2013-07-19 16:51:00,82.9,61.8,29.79,NW,317,3.0,3.0,49,0.00,,,0.02,Wunderground v.1.15,2013-07-19 21:51:00,
2013-07-19 16:56:00,82.6,60.3,29.79,NNW,340,2.0,11.0,47,0.00,,,0.02,Wunderground v.1.15,2013-07-19 21:56:00,
2013-07-19 17:01:00,82.7,61.0,29.79,NW,314,11.0,11.0,48,0.00,,,0.02,Wunderground v.1.15,2013-07-19 22:01:00,
2013-07-19 17:06:00,82.5,62.0,29.79,NW,309,9.0,11.0,50,0.00,,,0.02,Wunderground v.1.15,2013-07-19 22:06:00,
2013-07-19 17:11:00,82.4,58.9,29.80,NW,315,5.0,9.0,45,0.00,,,0.02,Wunderground v.1.15,2013-07-19 22:11:00,
2013-07-19 17:16:00,82.3,58.8,29.80,NW,311,10.0,11.0,45,0.00,,,0.02,Wunderground v.1.15,2013-07-19 22:16:00,
2013-07-19 17:21:00,81.9,59.1,29.79,NW,321,7.0,11.0,46,0.00,,,0.02,Wunderground v.1.15,2013-07-19 22:21:00,
2013-07-19 17:26:00,82.1,61.0,29.79,NW,317,0.0,11.0,49,0.00,,,0.02,Wunderground v.1.15,2013-07-19 22:26:00,
2013-07-19 17:31:00,82.8,65.0,29.79,NW,323,0.0,3.0,55,0.00,,,0.02,Wunderground v.1.15,2013-07-19 22:31:00,
2013-07-19 17:36:00,83.4,62.2,29.79,NW,317,1.0,5.0,49,0.00,,,0.02,Wunderground v.1.15,2013-07-19 22:36:00,
2013-07-19 17:41:00,83.4,60.4,29.79,NW,316,0.0,3.0,46,0.00,,,0.02,Wunderground v.1.15,2013-07-19 22:41:00,
2013-07-19 17:46:00,83.5,62.3,29.79,NW,316,0.0,3.0,49,0.00,,,0.02,Wunderground v.1.15,2013-07-19 22:46:00,
2013-07-19 17:51:00,83.5,60.5,29.79,NW,314,7.0,8.0,46,0.00,,,0.02,Wunderground v.1.15,2013-07-19 22:51:00,
2013-07-19 17:56:00,82.4,61.3,29.79,NW,316,2.0,9.0,49,0.00,,,0.02,Wunderground v.1.15,2013-07-19 22:56:00,
2013-07-19 18:01:00,82.3,60.6,29.79,NW,315,0.0,4.0,48,0.00,,,0.02,Wunderground v.1.15,2013-07-19 23:01:00,
2013-07-19 18:06:00,82.6,62.1,29.78,NW,315,0.0,4.0,50,0.00,,,0.02,Wunderground v.1.15,2013-07-19 23:06:00,
2013-07-19 18:11:00,83.2,62.6,29.78,NW,314,0.0,3.0,50,0.00,,,0.02,Wunderground v.1.15,2013-07-19 23:11:00,
2013-07-19 18:16:00,83.4,63.9,29.78,NW,315,0.0,3.0,52,0.00,,,0.02,Wunderground v.1.15,2013-07-19 23:16:00,
2013-07-19 18:21:00,83.4,62.2,29.78,NW,314,0.0,0.0,49,0.00,,,0.02,Wunderground v.1.15,2013-07-19 23:21:00,
2013-07-19 18:26:00,83.3,61.6,29.78,NW,314,1.0,5.0,48,0.00,,,0.02,Wunderground v.1.15,2013-07-19 23:26:00,
2013-07-19 18:31:00,82.4,60.7,29.78,NW,315,1.0,5.0,48,0.00,,,0.02,Wunderground v.1.15,2013-07-19 23:31:00,
2013-07-19 18:36:00,81.6,60.6,29.78,NW,315,0.0,6.0,49,0.00,,,0.02,Wunderground v.1.15,2013-07-19 23:36:00,
2013-07-19 18:41:00,81.7,62.9,29.78,NW,316,0.0,2.0,53,0.00,,,0.02,Wunderground v.1.15,2013-07-19 23:41:00,
2013-07-19 18:46:00,81.7,62.9,29.78,NW,316,0.0,2.0,53,0.00,,,0.02,Wunderground v.1.15,2013-07-19 23:46:00,
2013-07-19 18:51:00,81.2,61.9,29.78,NW,317,1.0,4.0,52,0.00,,,0.02,Wunderground v.1.15,2013-07-19 23:51:00,
2013-07-19 18:57:00,80.8,63.1,29.78,NW,317,0.0,4.0,55,0.00,,,0.02,Wunderground v.1.15,2013-07-19 23:57:00,
2013-07-19 19:02:00,80.7,62.5,29.78,NW,317,0.0,0.0,54,0.00,,,0.02,Wunderground v.1.15,2013-07-20 00:02:00,
2013-07-19 19:07:00,80.3,63.2,29.78,NW,317,0.0,1.0,56,0.00,,,0.02,Wunderground v.1.15,2013-07-20 00:07:00,
2013-07-19 19:12:00,79.9,63.3,29.78,NW,317,0.0,0.0,57,0.00,,,0.02,Wunderground v.1.15,2013-07-20 00:12:00,
2013-07-19 19:17:00,79.5,63.9,29.78,NW,317,0.0,0.0,59,0.00,,,0.02,Wunderground v.1.15,2013-07-20 00:17:00,
2013-07-19 19:22:00,79.3,63.2,29.78,NW,317,0.0,0.0,58,0.00,,,0.02,Wunderground v.1.15,2013-07-20 00:22:00,
2013-07-19 19:27:00,79.3,63.2,29.78,NW,317,0.0,0.0,58,0.00,,,0.02,Wunderground v.1.15,2013-07-20 00:27:00,
2013-07-19 19:32:00,79.6,62.5,29.78,NW,317,0.0,0.0,56,0.00,,,0.02,Wunderground v.1.15,2013-07-20 00:32:00,
2013-07-19 19:37:00,79.8,61.7,29.78,NW,317,0.0,0.0,54,0.00,,,0.02,Wunderground v.1.15,2013-07-20 00:37:00,
2013-07-19 19:42:00,79.6,61.5,29.78,NW,317,0.0,2.0,54,0.00,,,0.02,Wunderground v.1.15,2013-07-20 00:42:00,
2013-07-19 19:47:00,78.9,62.4,29.79,NW,317,0.0,2.0,57,0.00,,,0.02,Wunderground v.1.15,2013-07-20 00:47:00,
2013-07-19 19:52:00,78.7,64.1,29.79,NW,317,0.0,0.0,61,0.00,,,0.02,Wunderground v.1.15,2013-07-20 00:52:00,
2013-07-19 19:57:00,78.5,63.9,29.78,NNW,341,0.0,0.0,61,0.00,,,0.02,Wunderground v.1.15,2013-07-20 00:57:00,
2013-07-19 20:02:00,77.7,63.2,29.79,NNW,341,0.0,0.0,61,0.00,,,0.02,Wunderground v.1.15,2013-07-20 01:02:00,
2013-07-19 20:07:00,76.7,62.7,29.79,NNW,341,0.0,0.0,62,0.00,,,0.02,Wunderground v.1.15,2013-07-20 01:07:00,
2013-07-19 20:12:00,75.7,63.5,29.79,NNW,341,0.0,0.0,66,0.00,,,0.02,Wunderground v.1.15,2013-07-20 01:12:00,
2013-07-19 20:17:00,74.6,62.9,29.79,NNW,341,0.0,0.0,67,0.00,,,0.02,Wunderground v.1.15,2013-07-20 01:17:00,
2013-07-19 20:22:00,73.6,62.4,29.79,NNW,341,0.0,0.0,68,0.00,,,0.02,Wunderground v.1.15,2013-07-20 01:22:00,
2013-07-19 20:27:00,72.8,62.0,29.79,NNW,341,0.0,0.0,69,0.00,,,0.02,Wunderground v.1.15,2013-07-20 01:27:00,
2013-07-19 20:32:00,72.1,61.8,29.79,NNW,341,0.0,0.0,70,0.00,,,0.02,Wunderground v.1.15,2013-07-20 01:32:00,
2013-07-19 20:37:00,71.3,61.8,29.79,NNW,341,0.0,0.0,72,0.00,,,0.02,Wunderground v.1.15,2013-07-20 01:37:00,
2013-07-19 20:42:00,70.5,61.4,29.79,NNW,341,0.0,0.0,73,0.00,,,0.02,Wunderground v.1.15,2013-07-20 01:42:00,
2013-07-19 20:47:00,69.7,61.4,29.79,NNW,341,0.0,0.0,75,0.00,,,0.02,Wunderground v.1.15,2013-07-20 01:47:00,
2013-07-19 20:52:00,68.7,60.8,29.79,NNW,341,0.0,0.0,76,0.00,,,0.02,Wunderground v.1.15,2013-07-20 01:52:00,
2013-07-19 20:57:00,67.8,60.7,29.79,NNW,341,0.0,0.0,78,0.00,,,0.02,Wunderground v.1.15,2013-07-20 01:57:00,
2013-07-19 21:02:00,67.1,60.4,29.79,NNW,341,0.0,0.0,79,0.00,,,0.02,Wunderground v.1.15,2013-07-20 02:02:00,
2013-07-19 21:07:00,66.6,60.2,29.79,NNW,341,0.0,0.0,80,0.00,,,0.02,Wunderground v.1.15,2013-07-20 02:07:00,
2013-07-19 21:12:00,66.2,60.2,29.80,NNW,341,0.0,0.0,81,0.00,,,0.02,Wunderground v.1.15,2013-07-20 02:12:00,
2013-07-19 21:17:00,65.8,59.8,29.80,NNW,341,0.0,0.0,81,0.00,,,0.02,Wunderground v.1.15,2013-07-20 02:17:00,
2013-07-19 21:22:00,65.3,59.3,29.80,NNW,341,0.0,0.0,81,0.00,,,0.02,Wunderground v.1.15,2013-07-20 02:22:00,
2013-07-19 21:27:00,64.7,58.7,29.80,NNW,341,0.0,0.0,81,0.00,,,0.02,Wunderground v.1.15,2013-07-20 02:27:00,
2013-07-19 21:32:00,64.2,58.6,29.80,NNW,341,0.0,0.0,82,0.00,,,0.02,Wunderground v.1.15,2013-07-20 02:32:00,
2013-07-19 21:37:00,63.7,58.4,29.81,NNW,341,0.0,0.0,83,0.00,,,0.02,Wunderground v.1.15,2013-07-20 02:37:00,
2013-07-19 21:42:00,63.1,57.9,29.81,NNW,341,0.0,0.0,83,0.00,,,0.02,Wunderground v.1.15,2013-07-20 02:42:00,
2013-07-19 21:47:00,62.6,57.7,29.81,NNW,341,0.0,0.0,84,0.00,,,0.02,Wunderground v.1.15,2013-07-20 02:47:00,
2013-07-19 21:52:00,62.1,57.2,29.81,NNW,341,0.0,0.0,84,0.00,,,0.02,Wunderground v.1.15,2013-07-20 02:52:00,
2013-07-19 21:57:00,61.7,57.1,29.81,NNW,341,0.0,0.0,85,0.00,,,0.02,Wunderground v.1.15,2013-07-20 02:57:00,
2013-07-19 22:03:00,61.6,57.0,29.82,NNW,341,0.0,0.0,85,0.00,,,0.02,Wunderground v.1.15,2013-07-20 03:03:00,
2013-07-19 22:07:00,61.4,57.2,29.82,NNW,341,0.0,0.0,86,0.00,,,0.02,Wunderground v.1.15,2013-07-20 03:07:00,
2013-07-19 22:13:00,61.1,56.9,29.82,NNW,341,0.0,0.0,86,0.00,,,0.02,Wunderground v.1.15,2013-07-20 03:13:00,
2013-07-19 22:18:00,60.8,56.6,29.82,NNW,341,0.0,0.0,86,0.00,,,0.02,Wunderground v.1.15,2013-07-20 03:18:00,
2013-07-19 22:23:00,60.3,56.1,29.82,NNW,341,0.0,0.0,86,0.00,,,0.02,Wunderground v.1.15,2013-07-20 03:23:00,
2013-07-19 22:28:00,60.0,55.8,29.82,NNW,341,0.0,0.0,86,0.00,,,0.02,Wunderground v.1.15,2013-07-20 03:28:00,
2013-07-19 22:33:00,59.7,55.8,29.82,NNW,341,0.0,0.0,87,0.00,,,0.02,Wunderground v.1.15,2013-07-20 03:33:00,
2013-07-19 22:38:00,59.5,55.6,29.82,NNW,341,0.0,0.0,87,0.00,,,0.02,Wunderground v.1.15,2013-07-20 03:38:00,
2013-07-19 22:43:00,59.6,56.0,29.82,NNW,341,0.0,0.0,88,0.00,,,0.02,Wunderground v.1.15,2013-07-20 03:43:00,
2013-07-19 22:48:00,59.8,56.2,29.82,NNW,341,0.0,0.0,88,0.00,,,0.02,Wunderground v.1.15,2013-07-20 03:48:00,
2013-07-19 22:53:00,60.0,56.4,29.82,NNW,341,0.0,0.0,88,0.00,,,0.02,Wunderground v.1.15,2013-07-20 03:53:00,
2013-07-19 22:58:00,59.9,56.3,29.82,NNW,341,0.0,0.0,88,0.00,,,0.02,Wunderground v.1.15,2013-07-20 03:58:00,
2013-07-19 23:01:00,59.9,56.3,29.82,NNW,341,0.0,0.0,88,0.00,,,0.02,Wunderground v.1.15,2013-07-20 04:01:00,
2013-07-19 23:02:00,59.9,56.3,29.82,NNW,341,0.0,0.0,88,0.00,,,0.02,Wunderground v.1.15,2013-07-20 04:02:00,
2013-07-19 23:07:00,59.9,56.3,29.82,NNW,341,0.0,0.0,88,0.00,,,0.02,Wunderground v.1.15,2013-07-20 04:07:00,
2013-07-19 23:12:00,59.8,56.2,29.82,NNW,341,0.0,0.0,88,0.00,,,0.02,Wunderground v.1.15,2013-07-20 04:12:00,
2013-07-19 23:17:00,59.7,56.1,29.83,NNW,341,0.0,0.0,88,0.00,,,0.02,Wunderground v.1.15,2013-07-20 04:17:00,
2013-07-19 23:22:00,59.5,55.9,29.83,NNW,341,0.0,0.0,88,0.00,,,0.02,Wunderground v.1.15,2013-07-20 04:22:00,
2013-07-19 23:27:00,59.4,56.2,29.83,NNW,341,0.0,0.0,89,0.00,,,0.02,Wunderground v.1.15,2013-07-20 04:27:00,
2013-07-19 23:32:00,59.5,56.3,29.83,NNW,341,0.0,0.0,89,0.00,,,0.02,Wunderground v.1.15,2013-07-20 04:32:00,
2013-07-19 23:37:00,59.7,56.5,29.83,NNW,341,0.0,0.0,89,0.00,,,0.02,Wunderground v.1.15,2013-07-20 04:37:00,
2013-07-19 23:42:00,59.6,56.4,29.83,NNW,341,0.0,0.0,89,0.00,,,0.02,Wunderground v.1.15,2013-07-20 04:42:00,
2013-07-19 23:47:00,59.0,55.4,29.83,NNW,341,0.0,0.0,88,0.00,,,0.02,Wunderground v.1.15,2013-07-20 04:47:00,
2013-07-19 23:52:00,58.7,55.5,29.83,NNW,341,0.0,0.0,89,0.00,,,0.02,Wunderground v.1.15,2013-07-20 04:52:00,
2013-07-19 23:57:00,58.5,55.3,29.84,NNW,341,0.0,0.0,89,0.00,,,0.02,Wunderground v.1.15,2013-07-20 04:57:00,